QPF
0.01 0.01 0.02 0.02 0.01 0.01 0.01 0.02 0.02 0.01 0.01 0.01 0.01 0.02 0.02 0.03 0.06 0.05 0.05 0.07 0.07 0.07 0.08 0.08 0.09 0.10 0.12 0.13 0.14 0.15 0.15 0.14 0.12 0.11 0.09 0.08 0.07 0.07
0.00 0.00 0.00 0.00 0.00 0.00 0.00 0.00 0.00 0.01 0.01 0.01 0.01 0.02 0.03 0.03 0.05 0.04 0.05 0.06 0.06 0.06 0.06 0.07 0.07 0.07 0.08 0.09 0.10 0.11 0.10 0.08 0.07 0.06 0.05 0.05 0.05 0.04
0.00 0.00 0.00 0.00 0.00 0.00 0.00 0.00 0.00 0.00 0.01 0.01 0.01 0.02 0.02 0.03 0.03 0.03 0.03 0.04 0.04 0.05 0.04 0.04 0.04 0.05 0.05 0.06 0.05 0.04 0.04 0.04 0.03 0.03 0.03 0.03 0.03 0.02
0.00 0.00 0.00 0.00 0.00 0.00 0.00 0.00 0.01 0.01 0.01 0.01 0.01 0.02 0.02 0.02 0.02 0.02 0.01 0.02 0.02 0.03 0.02 0.02 0.02 0.02 0.03 0.02 0.02 0.01 0.01 0.01 0.01 0.01 0.01 0.01 0.01 0.01
0.00 0.00 0.00 0.00 0.00 0.00 0.00 0.00 0.00 0.00 0.01 0.01 0.01 0.01 0.02 0.02 0.02 0.02 0.02 0.02 0.02 0.01 0.01 0.01 0.01 0.01 0.01 0.00 0.00 0.00 0.00 0.00 0.00 0.00 0.00 0.00 0.00 0.00
0.00 0.00 0.00 0.00 0.00 0.00 0.00 0.00 0.00 0.00 0.00 0.01 0.01 0.01 0.01 0.01 0.02 0.02 0.02 0.03 0.02 0.01 0.01 0.01 0.01 0.01 0.00 0.00 0.00 0.00 0.00 0.00 0.00 0.00 0.00 0.00 0.00 0.00
0.00 0.00 0.00 0.00 0.00 0.00 0.00 0.00 0.00 0.00 0.00 0.00 0.00 0.01 0.01 0.02 0.02 0.02 0.02 0.03 0.03 0.02 0.03 0.03 0.04 0.05 0.04 0.02 0.00 0.00 0.00 0.00 0.00 0.00 0.00 0.00 0.00 0.00
0.00 0.00 0.00 0.00 0.00 0.00 0.00 0.00 0.00 0.00 0.00 0.01 0.01 0.02 0.03 0.02 0.02 0.02 0.02 0.03 0.05 0.04 0.03 0.04 0.04 0.04 0.03 0.02 0.01 0.00 0.00 0.00 0.00 0.00 0.00 0.00 0.00 0.00
0.00 0.00 0.00 0.00 0.00 0.00 0.00 0.00 0.00 0.00 0.00 0.00 0.02 0.03 0.03 0.03 0.03 0.03 0.04 0.03 0.05 0.04 0.03 0.05 0.04 0.04 0.02 0.00 0.00 0.00 0.00 0.00 0.00 0.00 0.00 0.00 0.00 0.00
0.00 0.00 0.00 0.00 0.00 0.00 0.00 0.01 0.01 0.01 0.00 0.00 0.01 0.02 0.01 0.02 0.02 0.02 0.03 0.03 0.06 0.06 0.03 0.05 0.04 0.03 0.02 0.02 0.00 0.00 0.00 0.00 0.00 0.00 0.00 0.00 0.00 0.00
0.00 0.00 0.00 0.00 0.00 0.00 0.00 0.02 0.02 0.02 0.00 0.00 0.00 0.00 0.00 0.00 0.00 0.02 0.04 0.05 0.07 0.08 0.05 0.05 0.04 0.03 0.03 0.03 0.01 0.00 0.00 0.00 0.00 0.00 0.00 0.00 0.00 0.00
0.00 0.00 0.00 0.00 0.00 0.00 0.01 0.02 0.02 0.02 0.02 0.02 0.02 0.02 0.02 0.02 0.01 0.02 0.04 0.06 0.06 0.08 0.06 0.05 0.05 0.03 0.04 0.04 0.03 0.02 0.02 0.01 0.00 0.00 0.00 0.00 0.00 0.01
0.00 0.00 0.00 0.00 0.00 0.00 0.00 0.01 0.01 0.00 0.01 0.01 0.02 0.02 0.03 0.04 0.03 0.02 0.03 0.05 0.05 0.07 0.05 0.04 0.05 0.04 0.04 0.05 0.03 0.02 0.02 0.03 0.03 0.02 0.01 0.00 0.00 0.00
0.00 0.00 0.00 0.00 0.00 0.00 0.01 0.01 0.01 0.01 0.01 0.01 0.02 0.03 0.03 0.04 0.04 0.02 0.03 0.04 0.03 0.04 0.04 0.04 0.05 0.04 0.04 0.05 0.04 0.02 0.02 0.02 0.02 0.02 0.03 0.01 0.01 0.00
0.00 0.00 0.00 0.00 0.00 0.00 0.00 0.00 0.00 0.01 0.02 0.02 0.02 0.03 0.02 0.03 0.03 0.03 0.03 0.04 0.03 0.02 0.01 0.02 0.03 0.04 0.04 0.04 0.03 0.02 0.02 0.01 0.02 0.02 0.02 0.03 0.03 0.02
0.00 0.00 0.00 0.00 0.00 0.00 0.01 0.01 0.01 0.01 0.01 0.02 0.02 0.02 0.02 0.03 0.04 0.03 0.03 0.03 0.04 0.03 0.01 0.01 0.01 0.03 0.04 0.03 0.03 0.02 0.02 0.02 0.01 0.02 0.02 0.03 0.02 0.01
0.00 0.01 0.01 0.01 0.01 0.01 0.01 0.01 0.01 0.01 0.01 0.01 0.02 0.02 0.02 0.02 0.02 0.01 0.02 0.03 0.04 0.03 0.02 0.01 0.01 0.01 0.02 0.02 0.02 0.02 0.02 0.02 0.01 0.01 0.02 0.03 0.03 0.01
0.00 0.00 0.00 0.00 0.00 0.01 0.01 0.01 0.01 0.01 0.01 0.01 0.01 0.01 0.01 0.02 0.02 0.01 0.02 0.03 0.03 0.01 0.01 0.00 0.01 0.01 0.02 0.01 0.01 0.01 0.02 0.02 0.02 0.02 0.02 0.03 0.02 0.01
0.00 0.00 0.00 0.00 0.00 0.00 0.00 0.00 0.01 0.00 0.00 0.01 0.01 0.01 0.01 0.01 0.01 0.01 0.01 0.02 0.01 0.01 0.01 0.00 0.00 0.01 0.02 0.02 0.01 0.00 0.01 0.02 0.03 0.03 0.02 0.02 0.02 0.01
0.00 0.00 0.00 0.00 0.00 0.00 0.00 0.00 0.00 0.00 0.00 0.00 0.00 0.00 0.00 0.00 0.00 0.01 0.01 0.01 0.01 0.02 0.02 0.01 0.01 0.01 0.01 0.01 0.01 0.01 0.00 0.00 0.01 0.02 0.01 0.02 0.02 0.01
0.00 0.00 0.00 0.00 0.00 0.00 0.00 0.00 0.00 0.00 0.00 0.00 0.00 0.00 0.00 0.00 0.00 0.01 0.01 0.00 0.00 0.01 0.02 0.01 0.00 0.00 0.00 0.01 0.01 0.01 0.00 0.00 0.00 0.00 0.00 0.00 0.01 0.02
0.00 0.00 0.00 0.00 0.00 0.00 0.00 0.00 0.00 0.00 0.00 0.00 0.00 0.00 0.00 0.00 0.00 0.00 0.01 0.01 0.00 0.01 0.01 0.01 0.00 0.00 0.01 0.02 0.02 0.01 0.01 0.00 0.00 0.00 0.00 0.00 0.00 0.00
0.00 0.00 0.00 0.00 0.00 0.00 0.00 0.00 0.00 0.00 0.00 0.00 0.00 0.00 0.00 0.00 0.00 0.00 0.00 0.00 0.00 0.00 0.01 0.01 0.00 0.00 0.00 0.00 0.00 0.00 0.00 0.00 0.00 0.00 0.00 0.00 0.00 0.00
MSLP
1021.65 1021.65 1021.67 1021.68 1021.71 1021.75 1021.79 1021.83 1021.88 1021.93 1021.98 1022.02 1022.05 1022.06 1022.06 1022.05 1022.03 1021.99 1021.95 1021.89 1021.82 1021.72 1021.60 1021.45 1021.28 1021.09 1020.89 1020.69 1020.51 1020.35 1020.22 1020.12 1020.04 1019.98 1019.91 1019.84 1019.75 1019.64
1022.21 1022.23 1022.24 1022.25 1022.24 1022.22 1022.19 1022.15 1022.10 1022.05 1022.00 1021.95 1021.89 1021.84 1021.79 1021.74 1021.68 1021.64 1021.59 1021.55 1021.49 1021.43 1021.35 1021.26 1021.15 1021.03 1020.90 1020.77 1020.66 1020.55 1020.45 1020.35 1020.26 1020.15 1020.02 1019.87 1019.70 1019.51
1022.73 1022.78 1022.82 1022.83 1022.81 1022.76 1022.68 1022.57 1022.44 1022.30 1022.15 1022.00 1021.85 1021.71 1021.58 1021.46 1021.36 1021.27 1021.19 1021.12 1021.06 1021.00 1020.94 1020.88 1020.81 1020.75 1020.68 1020.62 1020.57 1020.51 1020.44 1020.36 1020.26 1020.13 1019.96 1019.76 1019.53 1019.30
1023.23 1023.32 1023.39 1023.42 1023.41 1023.35 1023.24 1023.08 1022.89 1022.67 1022.44 1022.19 1021.95 1021.72 1021.50 1021.30 1021.13 1020.97 1020.84 1020.73 1020.64 1020.56 1020.49 1020.44 1020.40 1020.38 1020.36 1020.36 1020.35 1020.34 1020.31 1020.25 1020.16 1020.01 1019.83 1019.60 1019.35 1019.08
1023.71 1023.83 1023.93 1023.99 1024.00 1023.94 1023.82 1023.64 1023.40 1023.13 1022.82 1022.50 1022.18 1021.87 1021.57 1021.29 1021.04 1020.82 1020.62 1020.45 1020.31 1020.20 1020.11 1020.05 1020.03 1020.02 1020.04 1020.08 1020.12 1020.15 1020.15 1020.12 1020.04 1019.90 1019.71 1019.47 1019.21 1018.94
1024.17 1024.31 1024.42 1024.50 1024.52 1024.47 1024.35 1024.16 1023.90 1023.59 1023.24 1022.87 1022.49 1022.11 1021.75 1021.41 1021.09 1020.81 1020.55 1020.32 1020.13 1019.98 1019.87 1019.79 1019.76 1019.76 1019.80 1019.87 1019.94 1020.00 1020.03 1020.02 1019.96 1019.83 1019.65 1019.42 1019.15 1018.88
1024.58 1024.71 1024.83 1024.91 1024.94 1024.90 1024.78 1024.59 1024.32 1024.00 1023.63 1023.23 1022.81 1022.40 1021.99 1021.61 1021.25 1020.92 1020.62 1020.34 1020.11 1019.92 1019.77 1019.67 1019.63 1019.63 1019.68 1019.75 1019.84 1019.92 1019.98 1019.98 1019.93 1019.82 1019.64 1019.41 1019.15 1018.88
1024.93 1025.03 1025.13 1025.20 1025.23 1025.19 1025.07 1024.88 1024.62 1024.29 1023.91 1023.51 1023.09 1022.66 1022.25 1021.84 1021.46 1021.11 1020.78 1020.48 1020.21 1019.99 1019.82 1019.69 1019.63 1019.62 1019.65 1019.73 1019.82 1019.90 1019.96 1019.97 1019.92 1019.81 1019.64 1019.42 1019.16 1018.89
1025.19 1025.26 1025.33 1025.38 1025.40 1025.35 1025.23 1025.04 1024.78 1024.46 1024.09 1023.69 1023.28 1022.87 1022.46 1022.07 1021.69 1021.33 1020.99 1020.68 1020.39 1020.15 1019.95 1019.80 1019.71 1019.68 1019.69 1019.75 1019.82 1019.89 1019.93 1019.93 1019.88 1019.76 1019.58 1019.36 1019.10 1018.83
1025.39 1025.42 1025.46 1025.49 1025.48 1025.41 1025.29 1025.09 1024.83 1024.52 1024.16 1023.78 1023.39 1023.00 1022.61 1022.24 1021.88 1021.54 1021.20 1020.89 1020.60 1020.34 1020.12 1019.94 1019.82 1019.75 1019.73 1019.75 1019.79 1019.82 1019.84 1019.81 1019.73 1019.60 1019.42 1019.19 1018.93 1018.66
1025.54 1025.54 1025.55 1025.55 1025.52 1025.43 1025.29 1025.08 1024.82 1024.51 1024.16 1023.80 1023.43 1023.06 1022.71 1022.36 1022.03 1021.71 1021.39 1021.08 1020.79 1020.52 1020.28 1020.08 1019.92 1019.81 1019.74 1019.71 1019.69 1019.68 1019.64 1019.58 1019.47 1019.31 1019.11 1018.88 1018.62 1018.36
1025.68 1025.67 1025.66 1025.63 1025.57 1025.46 1025.29 1025.07 1024.79 1024.47 1024.13 1023.77 1023.42 1023.07 1022.75 1022.43 1022.12 1021.82 1021.52 1021.23 1020.94 1020.66 1020.40 1020.17 1019.97 1019.82 1019.69 1019.60 1019.52 1019.44 1019.35 1019.24 1019.09 1018.91 1018.70 1018.47 1018.22 1017.97
1025.84 1025.82 1025.78 1025.73 1025.64 1025.50 1025.31 1025.06 1024.76 1024.43 1024.08 1023.72 1023.38 1023.05 1022.73 1022.44 1022.15 1021.87 1021.59 1021.31 1021.02 1020.74 1020.47 1020.21 1019.98 1019.77 1019.59 1019.43 1019.29 1019.14 1018.99 1018.83 1018.64 1018.44 1018.22 1018.00 1017.77 1017.55
1026.03 1025.99 1025.94 1025.85 1025.73 1025.56 1025.33 1025.05 1024.73 1024.38 1024.02 1023.65 1023.31 1022.98 1022.67 1022.39 1022.12 1021.86 1021.59 1021.32 1021.04 1020.76 1020.48 1020.20 1019.94 1019.69 1019.45 1019.24 1019.03 1018.82 1018.61 1018.40 1018.18 1017.96 1017.75 1017.54 1017.35 1017.17
1026.23 1026.17 1026.08 1025.97 1025.81 1025.60 1025.34 1025.03 1024.69 1024.32 1023.94 1023.56 1023.21 1022.88 1022.57 1022.29 1022.03 1021.78 1021.52 1021.26 1020.99 1020.72 1020.43 1020.15 1019.86 1019.58 1019.31 1019.04 1018.77 1018.51 1018.25 1018.00 1017.76 1017.53 1017.33 1017.15 1017.00 1016.87
1026.40 1026.30 1026.18 1026.03 1025.84 1025.60 1025.31 1024.98 1024.62 1024.23 1023.84 1023.45 1023.09 1022.75 1022.43 1022.15 1021.89 1021.64 1021.40 1021.15 1020.89 1020.63 1020.35 1020.07 1019.77 1019.47 1019.16 1018.86 1018.55 1018.25 1017.95 1017.67 1017.42 1017.19 1017.00 1016.85 1016.75 1016.69
1026.51 1026.37 1026.21 1026.02 1025.80 1025.54 1025.24 1024.90 1024.53 1024.13 1023.73 1023.34 1022.96 1022.61 1022.29 1022.00 1021.73 1021.48 1021.24 1021.00 1020.76 1020.50 1020.24 1019.96 1019.67 1019.36 1019.04 1018.71 1018.38 1018.05 1017.73 1017.43 1017.16 1016.94 1016.77 1016.66 1016.60 1016.59
1026.52 1026.34 1026.15 1025.94 1025.71 1025.44 1025.14 1024.81 1024.44 1024.06 1023.66 1023.27 1022.88 1022.52 1022.18 1021.87 1021.59 1021.32 1021.07 1020.84 1020.60 1020.36 1020.11 1019.85 1019.57 1019.26 1018.94 1018.60 1018.25 1017.90 1017.57 1017.26 1016.98 1016.77 1016.61 1016.53 1016.51 1016.54
1026.44 1026.24 1026.03 1025.82 1025.59 1025.35 1025.07 1024.77 1024.43 1024.07 1023.68 1023.29 1022.90 1022.51 1022.15 1021.81 1021.50 1021.21 1020.95 1020.70 1020.47 1020.23 1019.99 1019.74 1019.47 1019.17 1018.85 1018.51 1018.16 1017.80 1017.45 1017.13 1016.86 1016.64 1016.49 1016.42 1016.43 1016.48
1026.32 1026.11 1025.91 1025.72 1025.53 1025.32 1025.09 1024.83 1024.53 1024.20 1023.83 1023.44 1023.04 1022.63 1022.24 1021.86 1021.50 1021.18 1020.88 1020.62 1020.37 1020.13 1019.89 1019.64 1019.38 1019.09 1018.78 1018.44 1018.08 1017.72 1017.36 1017.04 1016.75 1016.53 1016.38 1016.31 1016.31 1016.37
1026.20 1026.01 1025.85 1025.71 1025.57 1025.42 1025.25 1025.04 1024.79 1024.49 1024.14 1023.75 1023.33 1022.89 1022.45 1022.02 1021.61 1021.24 1020.90 1020.59 1020.31 1020.06 1019.81 1019.57 1019.31 1019.02 1018.71 1018.38 1018.02 1017.65 1017.29 1016.95 1016.65 1016.41 1016.25 1016.16 1016.14 1016.19
1026.14 1026.00 1025.89 1025.81 1025.74 1025.66 1025.56 1025.41 1025.20 1024.93 1024.59 1024.19 1023.74 1023.26 1022.76 1022.27 1021.80 1021.37 1020.98 1020.63 1020.32 1020.04 1019.78 1019.52 1019.26 1018.97 1018.67 1018.33 1017.97 1017.60 1017.23 1016.87 1016.56 1016.30 1016.10 1015.98 1015.93 1015.93
1026.16 1026.09 1026.05 1026.04 1026.04 1026.03 1025.99 1025.89 1025.71 1025.45 1025.11 1024.69 1024.21 1023.68 1023.13 1022.58 1022.04 1021.55 1021.10 1020.70 1020.36 1020.05 1019.77 1019.50 1019.23 1018.95 1018.64 1018.31 1017.94 1017.57 1017.19 1016.82 1016.49 1016.20 1015.96 1015.80 1015.70 1015.65
Thickness
5620 5619 5619 5617 5616 5616 5615 5615 5613 5610 5603 5596 5592 5587 5583 5580 5576 5575 5572 5568 5564 5561 5558 5555 5552 5549 5546 5544 5541 5538 5535 5532 5528 5524 5522 5519 5516 5515
5607 5606 5606 5605 5603 5602 5602 5601 5599 5597 5591 5584 5578 5573 5568 5566 5562 5559 5557 5553 5549 5545 5541 5538 5535 5531 5529 5527 5525 5522 5519 5516 5513 5509 5507 5505 5503 5500
5595 5593 5591 5589 5590 5590 5588 5586 5584 5582 5577 5571 5565 5560 5555 5551 5548 5545 5543 5539 5537 5530 5526 5522 5519 5516 5513 5511 5509 5507 5504 5502 5499 5497 5494 5493 5491 5489
5581 5580 5578 5576 5574 5573 5572 5570 5567 5563 5562 5555 5551 5548 5542 5538 5534 5531 5530 5527 5523 5518 5513 5509 5505 5503 5500 5498 5496 5494 5491 5490 5488 5486 5484 5483 5480 5477
5568 5566 5564 5562 5561 5558 5556 5555 5553 5551 5546 5544 5540 5535 5532 5527 5524 5521 5519 5513 5512 5508 5503 5498 5495 5492 5489 5487 5484 5483 5481 5480 5478 5476 5474 5471 5469 5467
5555 5553 5550 5548 5545 5543 5543 5541 5539 5537 5534 5533 5530 5526 5522 5517 5513 5512 5509 5505 5503 5500 5495 5492 5488 5485 5482 5479 5476 5474 5473 5471 5469 5467 5465 5462 5460 5458
5543 5540 5536 5531 5527 5527 5528 5526 5525 5525 5525 5522 5520 5517 5512 5507 5504 5501 5499 5497 5495 5492 5490 5488 5485 5483 5478 5474 5471 5468 5466 5464 5462 5459 5457 5455 5452 5449
5533 5530 5527 5523 5518 5515 5512 5509 5507 5509 5509 5509 5509 5504 5500 5497 5493 5492 5491 5489 5488 5485 5484 5484 5482 5479 5476 5472 5464 5462 5459 5457 5455 5453 5450 5448 5445 5442
5521 5520 5519 5514 5511 5509 5505 5501 5499 5495 5492 5493 5496 5492 5491 5488 5485 5485 5482 5481 5480 5479 5479 5479 5478 5475 5472 5466 5460 5457 5454 5452 5449 5447 5444 5441 5439 5436
5511 5510 5508 5505 5500 5497 5500 5499 5497 5494 5490 5488 5486 5485 5483 5480 5478 5477 5476 5476 5476 5474 5473 5474 5474 5472 5470 5464 5458 5455 5452 5449 5446 5443 5440 5437 5435 5433
5505 5501 5499 5497 5489 5488 5493 5494 5493 5490 5486 5482 5479 5478 5475 5473 5471 5472 5475 5476 5476 5474 5471 5471 5471 5470 5468 5464 5459 5455 5451 5448 5444 5441 5438 5435 5433 5431
5500 5496 5489 5487 5484 5483 5487 5488 5487 5485 5483 5483 5480 5478 5476 5474 5470 5468 5472 5473 5474 5472 5469 5468 5469 5469 5467 5465 5462 5458 5454 5449 5445 5441 5437 5434 5431 5431
5497 5494 5487 5481 5480 5479 5479 5480 5477 5475 5480 5481 5481 5480 5478 5476 5474 5471 5469 5469 5469 5468 5467 5466 5467 5468 5467 5464 5463 5461 5457 5453 5449 5443 5439 5434 5430 5427
5489 5487 5481 5476 5475 5474 5475 5472 5472 5473 5479 5479 5479 5478 5476 5474 5472 5470 5468 5466 5465 5464 5462 5462 5464 5464 5466 5464 5463 5462 5459 5455 5451 5447 5442 5436 5432 5427
5480 5475 5474 5473 5473 5474 5471 5470 5472 5475 5476 5476 5475 5475 5474 5472 5471 5470 5469 5467 5465 5465 5464 5463 5464 5465 5465 5465 5464 5463 5460 5458 5454 5450 5446 5441 5437 5432
5478 5474 5471 5471 5472 5470 5471 5472 5472 5471 5470 5471 5472 5472 5472 5472 5472 5471 5471 5470 5469 5469 5467 5465 5465 5464 5466 5466 5465 5464 5462 5459 5456 5453 5449 5446 5441 5436
5473 5475 5475 5474 5473 5472 5471 5470 5469 5469 5469 5468 5469 5470 5471 5472 5471 5471 5470 5471 5471 5471 5471 5471 5470 5469 5468 5467 5467 5466 5464 5462 5459 5456 5453 5451 5447 5442
5469 5472 5470 5469 5468 5468 5467 5467 5467 5465 5464 5465 5467 5468 5469 5470 5470 5471 5471 5471 5472 5473 5473 5474 5474 5474 5474 5472 5465 5468 5466 5465 5463 5461 5459 5457 5454 5449
5468 5467 5465 5464 5463 5463 5463 5462 5462 5461 5460 5463 5464 5465 5467 5468 5469 5470 5471 5472 5473 5474 5475 5475 5476 5475 5475 5474 5472 5465 5466 5466 5466 5466 5465 5462 5459 5456
5464 5463 5461 5459 5459 5458 5458 5457 5458 5459 5459 5460 5461 5463 5464 5466 5468 5469 5471 5470 5472 5474 5476 5477 5475 5474 5473 5473 5474 5474 5467 5468 5468 5468 5467 5467 5465 5459
5460 5458 5456 5455 5454 5454 5454 5453 5454 5455 5455 5457 5459 5459 5462 5464 5466 5468 5471 5469 5472 5475 5476 5477 5475 5471 5475 5478 5479 5478 5477 5471 5469 5467 5468 5470 5470 5469
5456 5454 5453 5451 5451 5451 5451 5452 5453 5453 5454 5456 5457 5458 5460 5463 5465 5468 5470 5473 5475 5477 5478 5480 5480 5481 5482 5482 5482 5483 5482 5479 5476 5470 5467 5465 5466 5467
5451 5450 5451 5450 5449 5448 5448 5448 5449 5451 5451 5452 5454 5456 5459 5462 5465 5468 5471 5474 5476 5478 5480 5482 5484 5485 5486 5486 5487 5487 5485 5486 5486 5483 5479 5471 5468 5466